Home > Weather > Moreno Valley > Past weeks

Flag for USA Weather for the Past 2 Weeks in Moreno Valley, California, USA

Now
52 °F

Passing clouds.


Feels Like: 51 °F
Forecast: 49 / 74 °F
Wind: 5 mph from South

Location: Riverside / March Air Force Base

Current Time: May 1, 2016 at 2:05:29 AM

Latest Report: May 1, 2016 at 12:58 AM


Visibility: 10 mi

Pressure: 29.85 "Hg

Humidity: 99%

Dew Point: 51 °F

Location of Moreno ValleyLocation

Historic Weather in Moreno Valley — Graph

°F

Moreno Valley Temperature Yesterday

Maximum temperature yesterday: 66 °F (at 5:58 PM)
Minimum temperature yesterday: 51 °F (at 11:58 PM)
Average temperature yesterday: 57 °F

High & Low Weather Summary for the Past Weeks

 TemperatureHumidityPressure
High88 °F (Apr 19, 2:58 PM)100% (Apr 23, 3:58 AM)30.07 "Hg (Apr 23, 3:58 AM)
Low44 °F (Apr 17, 5:58 AM)6% (Apr 17, 3:58 PM)29.72 "Hg (Apr 27, 11:58 PM)
Average62 °F51%29.91 "Hg
* Reported Apr 15 11:58 PM — Apr 30 11:58 PM, Moreno Valley, Weather by CustomWeather, © 2016

Note: Actual official high and low records may vary slightly from our data, if they occured in-between our weather recording intervals... More about our weather records

Advertising

Moreno Valley Weather History for the Previous 24 Hours

Scroll right to see more
 ConditionsComfort  
Time TempWeatherWind HumidityBarometerVisibility
11:58 PM
Sat, Apr 30
51 °FPassing clouds.3 mph98%29.85 "Hg10 mi
10:58 PM54 °FClear.5 mph91%29.84 "Hg10 mi
9:58 PM55 °FClear.6 mph83%29.85 "Hg10 mi
8:58 PM60 °FPassing clouds.5 mph62%29.82 "Hg10 mi
7:58 PM60 °FPassing clouds.5 mph64%29.79 "Hg10 mi
6:58 PM63 °FPartly sunny.12 mph59%29.77 "Hg10 mi
5:58 PM66 °FPassing clouds.15 mph52%29.75 "Hg10 mi
4:58 PM65 °FScattered clouds.14 mph52%29.74 "Hg10 mi
3:58 PM65 °FBroken clouds.15 mph52%29.75 "Hg10 mi
2:58 PM65 °FPartly sunny.7 mph52%29.75 "Hg10 mi
1:58 PM64 °FBroken clouds.12 mph55%29.76 "Hg10 mi
12:58 PM62 °FScattered clouds.7 mph64%29.77 "Hg10 mi
11:58 AM60 °FScattered clouds.10 mph76%29.80 "Hg10 mi
11:03 AM55 °FMostly cloudy.6 mph88%29.83 "Hg10 mi
10:58 AM55 °FDrizzle. Overcast.5 mph84%29.82 "Hg10 mi
9:58 AM54 °FMostly cloudy.5 mph92%29.82 "Hg10 mi
8:58 AM52 °FLight rain. Fog.8 mph92%29.82 "Hg4 mi
7:58 AM53 °FDrizzle. Overcast.13 mph85%29.82 "Hg10 mi
6:58 AM53 °FMostly cloudy.14 mph90%29.80 "Hg10 mi
6:03 AM52 °FOvercast.9 mph94%29.80 "Hg10 mi
5:58 AM52 °FOvercast.12 mph95%29.78 "Hg10 mi
4:58 AM53 °FOvercast.12 mph94%29.80 "Hg10 mi
3:58 AM55 °FMostly cloudy.8 mph82%29.80 "Hg10 mi
2:58 AM54 °FMostly cloudy.6 mph84%29.82 "Hg10 mi
Weather by CustomWeather, © 2016

See weather overviewHow to use our weather pages